Location: Drocourt
(49.0571°N, 1.7669°E)
Time: 10:06:50
(UTC+00:00)

Transit 4A - Pass Details

Date: 21 April 2024
Orbit: 871 x 971 km, 66.8° (Epoch: 24 May)

Event Time Altitude Azimuth Distance (km) Brightness Sun altitude
Rises 20:39:47 0° 324° (NW) 3,471 12.5 -15.6°
Reaches altitude 10° 20:42:16 10° 325° (NW) 2,529 11.4 -15.9°
Maximum altitude 20:48:07 86° 53° (NE) 883 7.7 -16.6°
Enters shadow 20:51:28 27° 143° (SE) 1,623 8.6 -17.0°
Drops below altitude 10° 20:54:00 10° 145° (SE) 2,539 - -17.3°
Sets 20:56:29 0° 145° (SE) 3,486 - -17.6°
